This is the latest recevied weather packets stored in our database for station/object K1WJY. If no packets are shown the sender has not sent any weather packets the latest 10 day(s).
| Time | Temp. | Humidity | Pressure | Rain* | Wind** | Luminosity | Snow |
|---|---|---|---|---|---|---|---|
| 1778077272 | 12.22° C | 98% | 1013.9 hPa | 0 mm | - | 137 W/m² | - |
| 1778076969 | 12.22° C | 98% | 1013.5 hPa | 0 mm | - | 142 W/m² | - |
| 1778076667 | 12.22° C | 97% | 1013.4 hPa | 0 mm | - | 139 W/m² | - |
| 1778076364 | 12.22° C | 98% | 1013.5 hPa | 0 mm | - | 170 W/m² | - |
| 1778076061 | 12.22° C | 98% | 1013.6 hPa | 0 mm | - | 140 W/m² | - |
| 1778075758 | 12.22° C | 98% | 1013.5 hPa | 0 mm | - | 153 W/m² | - |
| 1778075454 | 12.22° C | 98% | 1013.1 hPa | 0 mm | - | 137 W/m² | - |
| 1778075151 | 12.22° C | 98% | 1013.1 hPa | 0 mm | - | 203 W/m² | - |
| 1778074847 | 12.22° C | 98% | 1013.5 hPa | 0 mm | - | 157 W/m² | - |
| 1778074544 | 12.22° C | 98% | 1013.2 hPa | 0 mm | - | 130 W/m² | - |
| 1778074241 | 12.22° C | 98% | 1013.5 hPa | 0 mm | - | 111 W/m² | - |
| 1778073939 | 12.22° C | 97% | 1013.4 hPa | 0 mm | - | 105 W/m² | - |
| 1778073636 | 12.22° C | 97% | 1013.3 hPa | 0 mm | - | 166 W/m² | - |
| 1778073333 | 12.22° C | 97% | 1013.2 hPa | 0 mm | - | 167 W/m² | - |
| 1778073029 | 12.22° C | 96% | 1013.3 hPa | 0 mm | - | 78 W/m² | - |
| 1778072726 | 12.22° C | 96% | 1013.3 hPa | 0 mm | - | 106 W/m² | - |
| 1778072424 | 12.78° C | 95% | 1013 hPa | 0 mm | - | 118 W/m² | - |
| 1778072122 | 12.22° C | 96% | 1012.9 hPa | 0 mm | - | 175 W/m² | - |
| 1778071819 | 12.22° C | 96% | 1013.4 hPa | 0 mm | - | 199 W/m² | - |
| 1778071517 | 12.22° C | 96% | 1013.6 hPa | 0 mm | - | 187 W/m² | - |
| 1778071215 | 12.22° C | 96% | 1013.8 hPa | 0 mm | - | 138 W/m² | - |
| 1778070912 | 12.22° C | 95% | 1013.7 hPa | 0 mm | - | 100 W/m² | - |
| 1778070610 | 12.22° C | 96% | 1013.5 hPa | 0 mm | - | 122 W/m² | - |
| 1778070306 | 12.22° C | 95% | 1013.8 hPa | 0 mm | - | 159 W/m² | - |
| 1778070005 | 12.78° C | 95% | 1013.5 hPa | 0 mm | - | 127 W/m² | - |
* Rain latest hour (hover to see other rain measurements)
** Current wind speed in m/s (hover to see current wind gust speed)